iso_date,epoch_date,Year,Hour,Min,DOY,POS_DOY,Lat,Lon,BP,Ts,Ta,has_bp,has_ts,has_ta,BuoyID,Buoy_Type,Buoy_Owner,Logistics,Hemisphere
2016-07-07T23:09:36Z,1467932976,2016,23,10,189.965,189.965,67.1036,-168.159,1010.2,16.28,-999.0,yes,yes,no,300234063323530,BD2GI,AOML,USCG_HEALY,North
2016-07-08T00:00:00Z,1467936000,2016,0,0,190.0,190.0,67.2854,-168.0752,1010.1,11.02,-999.0,yes,yes,no,300234063323530,BD2GI,AOML,USCG_HEALY,North
2016-07-08T01:00:28Z,1467939629,2016,1,0,190.042,190.042,67.5232,-167.96561,1010.0,9.41,-999.0,yes,yes,no,300234063323530,BD2GI,AOML,USCG_HEALY,North
2016-07-08T01:59:31Z,1467943171,2016,2,0,190.083,190.083,67.764,-167.8524,1010.1,9.03,-999.0,yes,yes,no,300234063323530,BD2GI,AOML,USCG_HEALY,North
2016-07-08T03:00:00Z,1467946800,2016,3,0,190.125,190.125,68.01,-167.7354,1010.2,9.07,-999.0,yes,yes,no,300234063323530,BD2GI,AOML,USCG_HEALY,North
2016-07-08T04:00:28Z,1467950429,2016,4,0,190.167,190.167,68.2548,-167.61819,1010.0,9.0,-999.0,yes,yes,no,300234063323530,BD2GI,AOML,USCG_HEALY,North
2016-07-08T04:59:31Z,1467953971,2016,5,0,190.208,190.208,68.5032,-167.4946,1010.1,9.2,-999.0,yes,yes,no,300234063323530,BD2GI,AOML,USCG_HEALY,North
2016-07-08T06:00:00Z,1467957600,2016,6,0,190.25,190.25,68.7098,-167.1212,1010.1,9.24,-999.0,yes,yes,no,300234063323530,BD2GI,AOML,USCG_HEALY,North
2016-07-08T07:00:28Z,1467961229,2016,7,0,190.292,190.292,68.9134,-166.75079,1010.4,9.99,-999.0,yes,yes,no,300234063323530,BD2GI,AOML,USCG_HEALY,North
2016-07-08T07:59:31Z,1467964771,2016,8,0,190.333,190.333,69.1154,-166.3788,1010.6,9.96,-999.0,yes,yes,no,300234063323530,BD2GI,AOML,USCG_HEALY,North
2016-07-08T09:00:00Z,1467968400,2016,9,0,190.375,190.375,69.318,-166.002,1010.8,9.37,-999.0,yes,yes,no,300234063323530,BD2GI,AOML,USCG_HEALY,North
2016-07-08T10:00:28Z,1467972029,2016,10,0,190.417,190.417,69.5186,-165.6264,1010.9,9.1,-999.0,yes,yes,no,300234063323530,BD2GI,AOML,USCG_HEALY,North
2016-07-08T10:59:31Z,1467975571,2016,11,0,190.458,190.458,69.7234,-165.23801,1011.2,8.45,-999.0,yes,yes,no,300234063323530,BD2GI,AOML,USCG_HEALY,North
2016-07-08T12:00:00Z,1467979200,2016,12,0,190.5,190.5,69.924,-164.85539,1011.0,7.08,-999.0,yes,yes,no,300234063323530,BD2GI,AOML,USCG_HEALY,North
2016-07-08T13:00:28Z,1467982829,2016,13,0,190.542,190.542,70.1226,-164.47141,1010.6,6.98,-999.0,yes,yes,no,300234063323530,BD2GI,AOML,USCG_HEALY,North
2016-07-08T13:59:31Z,1467986371,2016,14,0,190.583,190.583,70.3248,-164.07739,1010.3,6.5,-999.0,yes,yes,no,300234063323530,BD2GI,AOML,USCG_HEALY,North
2016-07-08T15:00:00Z,1467990000,2016,15,0,190.625,190.625,70.4608,-163.76781,1010.1,5.07,-999.0,yes,yes,no,300234063323530,BD2GI,AOML,USCG_HEALY,North
2016-07-08T16:00:28Z,1467993629,2016,16,0,190.667,190.667,70.597,-163.5446,1010.0,5.61,-999.0,yes,yes,no,300234063323530,BD2GI,AOML,USCG_HEALY,North
2016-07-08T16:59:31Z,1467997171,2016,17,0,190.708,190.708,70.7676,-163.2426,1010.0,5.72,-999.0,yes,yes,no,300234063323530,BD2GI,AOML,USCG_HEALY,North
2016-07-08T18:00:00Z,1468000800,2016,18,0,190.75,190.75,70.901,-162.8828,1010.2,5.89,-999.0,yes,yes,no,300234063323530,BD2GI,AOML,USCG_HEALY,North
2016-07-08T19:00:28Z,1468004429,2016,19,0,190.792,190.792,70.9654,-162.4976,1010.7,6.26,-999.0,yes,yes,no,300234063323530,BD2GI,AOML,USCG_HEALY,North
2016-07-08T19:59:31Z,1468007971,2016,20,0,190.833,190.833,71.0654,-162.4796,1010.8,5.75,-999.0,yes,yes,no,300234063323530,BD2GI,AOML,USCG_HEALY,North
2016-07-08T21:00:00Z,1468011600,2016,21,0,190.875,190.875,71.1224,-162.2784,1011.1,5.75,-999.0,yes,yes,no,300234063323530,BD2GI,AOML,USCG_HEALY,North
2016-07-08T22:00:28Z,1468015229,2016,22,0,190.917,190.917,71.2004,-162.1252,1011.2,6.26,-999.0,yes,yes,no,300234063323530,BD2GI,AOML,USCG_HEALY,North
2016-07-08T22:59:31Z,1468018771,2016,23,0,190.958,190.958,71.2512,-161.89121,1011.5,6.43,-999.0,yes,yes,no,300234063323530,BD2GI,AOML,USCG_HEALY,North
2016-07-09T00:00:00Z,1468022400,2016,0,0,191.0,191.0,71.3338,-161.77879,1011.4,6.47,-999.0,yes,yes,no,300234063323530,BD2GI,AOML,USCG_HEALY,North
2016-07-09T01:00:28Z,1468026029,2016,1,0,191.042,191.042,71.4034,-161.6814,1011.4,6.19,-999.0,yes,yes,no,300234063323530,BD2GI,AOML,USCG_HEALY,North
2016-07-09T01:59:31Z,1468029571,2016,2,0,191.083,191.083,71.4752,-161.6216,1011.1,6.84,-999.0,yes,yes,no,300234063323530,BD2GI,AOML,USCG_HEALY,North
2016-07-09T03:00:00Z,1468033200,2016,3,0,191.125,191.125,71.5522,-161.55499,1011.0,6.13,-999.0,yes,yes,no,300234063323530,BD2GI,AOML,USCG_HEALY,North
2016-07-09T04:00:28Z,1468036829,2016,4,0,191.167,191.167,71.5996,-161.5014,1010.7,6.54,-999.0,yes,yes,no,300234063323530,BD2GI,AOML,USCG_HEALY,North
2016-07-09T04:59:31Z,1468040371,2016,5,0,191.208,191.208,71.596,-161.5038,1010.5,5.82,-999.0,yes,yes,no,300234063323530,BD2GI,AOML,USCG_HEALY,North
2016-07-09T06:00:00Z,1468044000,2016,6,0,191.25,191.25,71.5916,-161.50819,1010.4,6.4,-999.0,yes,yes,no,300234063323530,BD2GI,AOML,USCG_HEALY,North
2016-07-09T07:00:28Z,1468047629,2016,7,0,191.292,191.292,71.6584,-161.47321,1010.1,6.43,-999.0,yes,yes,no,300234063323530,BD2GI,AOML,USCG_HEALY,North
2016-07-09T07:59:31Z,1468051171,2016,8,0,191.333,191.333,71.7542,-161.4108,1010.2,6.02,-999.0,yes,yes,no,300234063323530,BD2GI,AOML,USCG_HEALY,North
2016-07-09T09:00:00Z,1468054800,2016,9,0,191.375,191.375,71.8466,-161.34779,1010.0,5.34,-999.0,yes,yes,no,300234063323530,BD2GI,AOML,USCG_HEALY,North
2016-07-09T10:00:28Z,1468058429,2016,10,0,191.417,191.417,71.9342,-161.27139,1009.8,4.69,-999.0,yes,yes,no,300234063323530,BD2GI,AOML,USCG_HEALY,North
2016-07-09T10:59:31Z,1468061971,2016,11,0,191.458,191.458,72.014,-161.24541,1009.6,4.59,-999.0,yes,yes,no,300234063323530,BD2GI,AOML,USCG_HEALY,North
2016-07-09T12:00:00Z,1468065600,2016,12,0,191.5,191.5,72.097,-161.17,1009.4,4.18,-999.0,yes,yes,no,300234063323530,BD2GI,AOML,USCG_HEALY,North
2016-07-09T13:00:28Z,1468069229,2016,13,0,191.542,191.542,72.1918,-161.1104,1009.2,4.14,-999.0,yes,yes,no,300234063323530,BD2GI,AOML,USCG_HEALY,North
2016-07-09T13:59:31Z,1468072771,2016,14,0,191.583,191.583,72.2534,-161.0316,1008.9,3.83,-999.0,yes,yes,no,300234063323530,BD2GI,AOML,USCG_HEALY,North
2016-07-09T15:00:00Z,1468076400,2016,15,0,191.625,191.625,72.3516,-160.9474,1008.8,3.87,-999.0,yes,yes,no,300234063323530,BD2GI,AOML,USCG_HEALY,North
2016-07-09T16:00:28Z,1468080029,2016,16,0,191.667,191.667,72.4514,-160.88879,1008.6,3.7,-999.0,yes,yes,no,300234063323530,BD2GI,AOML,USCG_HEALY,North
2016-07-09T16:59:31Z,1468083571,2016,17,0,191.708,191.708,72.5486,-160.804,1008.2,3.63,-999.0,yes,yes,no,300234063323530,BD2GI,AOML,USCG_HEALY,North
2016-07-09T18:00:00Z,1468087200,2016,18,0,191.75,191.75,72.6256,-160.7872,1008.2,3.97,-999.0,yes,yes,no,300234063323530,BD2GI,AOML,USCG_HEALY,North
2016-07-09T19:00:28Z,1468090829,2016,19,0,191.792,191.792,72.7046,-160.7876,1008.0,3.87,-999.0,yes,yes,no,300234063323530,BD2GI,AOML,USCG_HEALY,North
2016-07-09T19:59:31Z,1468094371,2016,20,0,191.833,191.833,72.7288,-160.7666,1008.0,3.25,-999.0,yes,yes,no,300234063323530,BD2GI,AOML,USCG_HEALY,North
2016-07-09T21:00:00Z,1468098000,2016,21,0,191.875,191.875,72.7834,-160.7518,1007.6,3.42,-999.0,yes,yes,no,300234063323530,BD2GI,AOML,USCG_HEALY,North
2016-07-09T22:00:28Z,1468101629,2016,22,0,191.917,191.917,72.8562,-160.6418,1007.6,3.97,-999.0,yes,yes,no,300234063323530,BD2GI,AOML,USCG_HEALY,North
2016-07-09T22:59:31Z,1468105171,2016,23,0,191.958,191.958,72.9278,-160.6174,1007.3,4.14,-999.0,yes,yes,no,300234063323530,BD2GI,AOML,USCG_HEALY,North
2016-07-10T00:00:00Z,1468108800,2016,0,0,192.0,192.0,73.0042,-160.54781,1007.4,4.35,-999.0,yes,yes,no,300234063323530,BD2GI,AOML,USCG_HEALY,North
2016-07-10T01:00:28Z,1468112429,2016,1,0,192.042,192.042,73.0926,-160.464,1007.4,4.76,-999.0,yes,yes,no,300234063323530,BD2GI,AOML,USCG_HEALY,North
2016-07-10T01:59:31Z,1468115971,2016,2,0,192.083,192.083,73.1868,-160.4106,1007.4,4.45,-999.0,yes,yes,no,300234063323530,BD2GI,AOML,USCG_HEALY,North
2016-07-10T03:00:00Z,1468119600,2016,3,0,192.125,192.125,73.2832,-160.3024,1007.2,4.69,-999.0,yes,yes,no,300234063323530,BD2GI,AOML,USCG_HEALY,North
2016-07-10T04:00:28Z,1468123229,2016,4,0,192.167,192.167,73.3806,-160.2442,1007.0,4.62,-999.0,yes,yes,no,300234063323530,BD2GI,AOML,USCG_HEALY,North
2016-07-10T04:59:31Z,1468126771,2016,5,0,192.208,192.208,73.4728,-160.13879,1007.3,4.28,-999.0,yes,yes,no,300234063323530,BD2GI,AOML,USCG_HEALY,North
2016-07-10T06:00:00Z,1468130400,2016,6,0,192.25,192.25,73.584,-160.1058,1007.1,4.01,-999.0,yes,yes,no,300234063323530,BD2GI,AOML,USCG_HEALY,North
2016-07-10T07:00:28Z,1468134029,2016,7,0,192.292,192.292,73.62,-160.1438,1007.0,3.6,-999.0,yes,yes,no,300234063323530,BD2GI,AOML,USCG_HEALY,North
2016-07-10T07:59:31Z,1468137571,2016,8,0,192.333,192.333,73.6238,-160.1642,1006.8,3.63,-999.0,yes,yes,no,300234063323530,BD2GI,AOML,USCG_HEALY,North
2016-07-10T09:00:00Z,1468141200,2016,9,0,192.375,192.375,73.63,-160.1922,1006.6,2.95,-999.0,yes,yes,no,300234063323530,BD2GI,AOML,USCG_HEALY,North
2016-07-10T10:00:28Z,1468144829,2016,10,0,192.417,192.417,73.6362,-160.2032,1006.7,3.25,-999.0,yes,yes,no,300234063323530,BD2GI,AOML,USCG_HEALY,North
2016-07-10T10:59:31Z,1468148371,2016,11,0,192.458,192.458,73.6402,-160.2186,1006.5,3.36,-999.0,yes,yes,no,300234063323530,BD2GI,AOML,USCG_HEALY,North
2016-07-10T12:00:00Z,1468152000,2016,12,0,192.5,192.5,73.644,-160.2354,1006.5,3.32,-999.0,yes,yes,no,300234063323530,BD2GI,AOML,USCG_HEALY,North
2016-07-10T13:00:28Z,1468155629,2016,13,0,192.542,192.542,73.6466,-160.2558,1006.7,2.77,-999.0,yes,yes,no,300234063323530,BD2GI,AOML,USCG_HEALY,North
2016-07-10T13:59:31Z,1468159171,2016,14,0,192.583,192.583,73.6516,-160.272,1006.7,2.4,-999.0,yes,yes,no,300234063323530,BD2GI,AOML,USCG_HEALY,North
2016-07-10T15:00:00Z,1468162800,2016,15,0,192.625,192.625,73.6546,-160.2928,1006.8,2.33,-999.0,yes,yes,no,300234063323530,BD2GI,AOML,USCG_HEALY,North
2016-07-10T16:00:28Z,1468166429,2016,16,0,192.667,192.667,73.6624,-160.2872,1006.8,2.5,-999.0,yes,yes,no,300234063323530,BD2GI,AOML,USCG_HEALY,North
2016-07-10T16:59:31Z,1468169971,2016,17,0,192.708,192.708,73.665,-160.301,1007.0,2.5,-999.0,yes,yes,no,300234063323530,BD2GI,AOML,USCG_HEALY,North
2016-07-10T18:00:00Z,1468173600,2016,18,0,192.75,192.75,73.6688,-160.3172,1007.3,2.09,-999.0,yes,yes,no,300234063323530,BD2GI,AOML,USCG_HEALY,North
2016-07-10T19:00:28Z,1468177229,2016,19,0,192.792,192.792,73.6762,-160.3304,1007.5,2.36,-999.0,yes,yes,no,300234063323530,BD2GI,AOML,USCG_HEALY,North
2016-07-10T19:59:31Z,1468180771,2016,20,0,192.833,192.833,73.6836,-160.34,1007.9,2.71,-999.0,yes,yes,no,300234063323530,BD2GI,AOML,USCG_HEALY,North
2016-07-10T21:00:00Z,1468184400,2016,21,0,192.875,192.875,73.697,-160.3264,1008.3,2.84,-999.0,yes,yes,no,300234063323530,BD2GI,AOML,USCG_HEALY,North
2016-07-10T22:00:28Z,1468188029,2016,22,0,192.917,192.917,73.704,-160.33321,1008.8,2.67,-999.0,yes,yes,no,300234063323530,BD2GI,AOML,USCG_HEALY,North
2016-07-10T22:59:31Z,1468191571,2016,23,0,192.958,192.958,73.7076,-160.3446,1009.0,2.26,-999.0,yes,yes,no,300234063323530,BD2GI,AOML,USCG_HEALY,North
2016-07-11T00:00:00Z,1468195200,2016,0,0,193.0,193.0,73.714,-160.354,1009.6,2.4,-999.0,yes,yes,no,300234063323530,BD2GI,AOML,USCG_HEALY,North
2016-07-11T01:00:28Z,1468198829,2016,1,0,193.042,193.042,73.7174,-160.36259,1009.8,2.5,-999.0,yes,yes,no,300234063323530,BD2GI,AOML,USCG_HEALY,North
2016-07-11T01:59:31Z,1468202371,2016,2,0,193.083,193.083,73.719,-160.3744,1010.0,2.81,-999.0,yes,yes,no,300234063323530,BD2GI,AOML,USCG_HEALY,North
2016-07-11T03:00:00Z,1468206000,2016,3,0,193.125,193.125,73.7214,-160.3824,1010.3,2.84,-999.0,yes,yes,no,300234063323530,BD2GI,AOML,USCG_HEALY,North
2016-07-11T04:00:28Z,1468209629,2016,4,0,193.167,193.167,73.723,-160.39619,1011.2,2.95,-999.0,yes,yes,no,300234063323530,BD2GI,AOML,USCG_HEALY,North
2016-07-11T04:59:31Z,1468213171,2016,5,0,193.208,193.208,73.7256,-160.4104,1011.4,2.71,-999.0,yes,yes,no,300234063323530,BD2GI,AOML,USCG_HEALY,North
2016-07-11T06:00:00Z,1468216800,2016,6,0,193.25,193.25,73.7298,-160.4204,1011.8,2.64,-999.0,yes,yes,no,300234063323530,BD2GI,AOML,USCG_HEALY,North
2016-07-11T07:00:28Z,1468220429,2016,7,0,193.292,193.292,73.7348,-160.43401,1012.3,2.57,-999.0,yes,yes,no,300234063323530,BD2GI,AOML,USCG_HEALY,North
2016-07-11T07:59:31Z,1468223971,2016,8,0,193.333,193.333,73.7412,-160.44161,1012.7,2.19,-999.0,yes,yes,no,300234063323530,BD2GI,AOML,USCG_HEALY,North
2016-07-11T09:00:00Z,1468227600,2016,9,0,193.375,193.375,73.748,-160.44521,1013.0,1.75,-999.0,yes,yes,no,300234063323530,BD2GI,AOML,USCG_HEALY,North
2016-07-11T10:00:28Z,1468231229,2016,10,0,193.417,193.417,73.7554,-160.4408,1013.6,1.99,-999.0,yes,yes,no,300234063323530,BD2GI,AOML,USCG_HEALY,North
2016-07-11T10:59:31Z,1468234771,2016,11,0,193.458,193.458,73.7594,-160.4422,1013.9,1.61,-999.0,yes,yes,no,300234063323530,BD2GI,AOML,USCG_HEALY,North
2016-07-11T12:00:00Z,1468238400,2016,12,0,193.5,193.5,73.765,-160.43539,1014.0,1.54,-999.0,yes,yes,no,300234063323530,BD2GI,AOML,USCG_HEALY,North
2016-07-11T13:00:28Z,1468242029,2016,13,0,193.542,193.542,73.7668,-160.4382,1014.1,1.78,-999.0,yes,yes,no,300234063323530,BD2GI,AOML,USCG_HEALY,North
2016-07-11T13:59:31Z,1468245571,2016,14,0,193.583,193.583,73.769,-160.4366,1014.3,1.82,-999.0,yes,yes,no,300234063323530,BD2GI,AOML,USCG_HEALY,North
2016-07-11T15:00:00Z,1468249200,2016,15,0,193.625,193.625,73.7712,-160.4378,1014.4,1.82,-999.0,yes,yes,no,300234063323530,BD2GI,AOML,USCG_HEALY,North
2016-07-11T16:00:28Z,1468252829,2016,16,0,193.667,193.667,73.7732,-160.44099,1014.6,1.92,-999.0,yes,yes,no,300234063323530,BD2GI,AOML,USCG_HEALY,North
2016-07-11T16:59:31Z,1468256371,2016,17,0,193.708,193.708,73.776,-160.4474,1014.7,2.02,-999.0,yes,yes,no,300234063323530,BD2GI,AOML,USCG_HEALY,North
2016-07-11T18:00:00Z,1468260000,2016,18,0,193.75,193.75,73.7812,-160.4348,1014.7,1.82,-999.0,yes,yes,no,300234063323530,BD2GI,AOML,USCG_HEALY,North
2016-07-11T19:00:28Z,1468263629,2016,19,0,193.792,193.792,73.7854,-160.43581,1014.6,2.74,-999.0,yes,yes,no,300234063323530,BD2GI,AOML,USCG_HEALY,North
2016-07-11T19:59:31Z,1468267171,2016,20,0,193.833,193.833,73.7906,-160.44099,1014.8,2.81,-999.0,yes,yes,no,300234063323530,BD2GI,AOML,USCG_HEALY,North
2016-07-11T21:00:00Z,1468270800,2016,21,0,193.875,193.875,73.7968,-160.4436,1014.4,2.4,-999.0,yes,yes,no,300234063323530,BD2GI,AOML,USCG_HEALY,North
2016-07-11T22:00:28Z,1468274429,2016,22,0,193.917,193.917,73.7404,-159.67439,1014.5,1.92,-999.0,yes,yes,no,300234063323530,BD2GI,AOML,USCG_HEALY,North
2016-07-11T22:59:31Z,1468277971,2016,23,0,193.958,193.958,73.8126,-160.4368,1014.3,2.4,-999.0,yes,yes,no,300234063323530,BD2GI,AOML,USCG_HEALY,North
2016-07-12T00:00:00Z,1468281600,2016,0,0,194.0,194.0,73.821,-160.42619,1013.8,2.33,-999.0,yes,yes,no,300234063323530,BD2GI,AOML,USCG_HEALY,North
2016-07-12T01:00:28Z,1468285229,2016,1,0,194.042,194.042,73.8292,-160.412,1013.4,2.67,-999.0,yes,yes,no,300234063323530,BD2GI,AOML,USCG_HEALY,North
2016-07-12T01:59:31Z,1468288771,2016,2,0,194.083,194.083,73.8368,-160.3956,1013.1,2.74,-999.0,yes,yes,no,300234063323530,BD2GI,AOML,USCG_HEALY,North
2016-07-12T03:00:00Z,1468292400,2016,3,0,194.125,194.125,73.837,-160.36121,1013.0,2.91,-999.0,yes,yes,no,300234063323530,BD2GI,AOML,USCG_HEALY,North
2016-07-12T04:00:28Z,1468296029,2016,4,0,194.167,194.167,73.8426,-160.345,1012.4,4.01,-999.0,yes,yes,no,300234063323530,BD2GI,AOML,USCG_HEALY,North
2016-07-12T04:59:31Z,1468299571,2016,5,0,194.208,194.208,73.8466,-160.325,1012.0,3.15,-999.0,yes,yes,no,300234063323530,BD2GI,AOML,USCG_HEALY,North
2016-07-12T06:00:00Z,1468303200,2016,6,0,194.25,194.25,73.8418,-160.2912,1011.8,3.36,-999.0,yes,yes,no,300234063323530,BD2GI,AOML,USCG_HEALY,North
2016-07-12T07:00:28Z,1468306829,2016,7,0,194.292,194.292,73.848,-160.28,1012.2,4.07,-999.0,yes,yes,no,300234063323530,BD2GI,AOML,USCG_HEALY,North
2016-07-12T07:59:31Z,1468310371,2016,8,0,194.333,194.333,73.8512,-160.2628,1012.0,3.94,-999.0,yes,yes,no,300234063323530,BD2GI,AOML,USCG_HEALY,North
2016-07-12T09:00:00Z,1468314000,2016,9,0,194.375,194.375,73.8534,-160.242,1012.3,3.87,-999.0,yes,yes,no,300234063323530,BD2GI,AOML,USCG_HEALY,North
2016-07-12T10:00:28Z,1468317629,2016,10,0,194.417,194.417,73.8562,-160.22459,1012.0,3.7,-999.0,yes,yes,no,300234063323530,BD2GI,AOML,USCG_HEALY,North
2016-07-12T10:59:31Z,1468321171,2016,11,0,194.458,194.458,73.8606,-160.2114,1013.3,2.91,-999.0,yes,yes,no,300234063323530,BD2GI,AOML,USCG_HEALY,North
2016-07-12T12:00:00Z,1468324800,2016,12,0,194.5,194.5,73.8626,-160.1962,1013.6,2.09,-999.0,yes,yes,no,300234063323530,BD2GI,AOML,USCG_HEALY,North
2016-07-12T13:00:28Z,1468328429,2016,13,0,194.542,194.542,73.8654,-160.1852,1014.4,2.19,-999.0,yes,yes,no,300234063323530,BD2GI,AOML,USCG_HEALY,North
2016-07-12T13:59:31Z,1468331971,2016,14,0,194.583,194.583,73.8668,-160.176,1015.4,1.51,-999.0,yes,yes,no,300234063323530,BD2GI,AOML,USCG_HEALY,North
2016-07-12T15:00:00Z,1468335600,2016,15,0,194.625,194.625,73.8674,-160.1696,1015.8,1.24,-999.0,yes,yes,no,300234063323530,BD2GI,AOML,USCG_HEALY,North
2016-07-12T16:00:28Z,1468339229,2016,16,0,194.667,194.667,73.868,-160.16679,1016.6,0.96,-999.0,yes,yes,no,300234063323530,BD2GI,AOML,USCG_HEALY,North
2016-07-12T16:59:31Z,1468342771,2016,17,0,194.708,194.708,73.8678,-160.1642,1017.3,0.69,-999.0,yes,yes,no,300234063323530,BD2GI,AOML,USCG_HEALY,North
2016-07-12T18:00:00Z,1468346400,2016,18,0,194.75,194.75,73.8722,-160.1636,1018.0,0.52,-999.0,yes,yes,no,300234063323530,BD2GI,AOML,USCG_HEALY,North
2016-07-12T19:00:28Z,1468350029,2016,19,0,194.792,194.792,73.8728,-160.164,1018.1,1.27,-999.0,yes,yes,no,300234063323530,BD2GI,AOML,USCG_HEALY,North
2016-07-12T19:59:31Z,1468353571,2016,20,0,194.833,194.833,73.8766,-160.16921,1018.6,2.67,-999.0,yes,yes,no,300234063323530,BD2GI,AOML,USCG_HEALY,North
2016-07-12T21:00:00Z,1468357200,2016,21,0,194.875,194.875,73.8812,-160.1756,1018.4,3.6,-999.0,yes,yes,no,300234063323530,BD2GI,AOML,USCG_HEALY,North
2016-07-12T22:00:28Z,1468360829,2016,22,0,194.917,194.917,73.8876,-160.181,1018.8,3.01,-999.0,yes,yes,no,300234063323530,BD2GI,AOML,USCG_HEALY,North
2016-07-12T22:59:31Z,1468364371,2016,23,0,194.958,194.958,73.8958,-160.18339,1018.8,3.42,-999.0,yes,yes,no,300234063323530,BD2GI,AOML,USCG_HEALY,North
2016-07-13T00:00:00Z,1468368000,2016,0,0,195.0,195.0,73.9042,-160.18021,1018.6,3.25,-999.0,yes,yes,no,300234063323530,BD2GI,AOML,USCG_HEALY,North
2016-07-13T01:00:28Z,1468371629,2016,1,0,195.042,195.042,73.9134,-160.1712,1018.3,2.47,-999.0,yes,yes,no,300234063323530,BD2GI,AOML,USCG_HEALY,North
2016-07-13T01:59:31Z,1468375171,2016,2,0,195.083,195.083,73.9232,-160.15739,1017.8,2.13,-999.0,yes,yes,no,300234063323530,BD2GI,AOML,USCG_HEALY,North
2016-07-13T03:00:00Z,1468378800,2016,3,0,195.125,195.125,73.9318,-160.14,1017.1,1.75,-999.0,yes,yes,no,300234063323530,BD2GI,AOML,USCG_HEALY,North
2016-07-13T04:00:28Z,1468382429,2016,4,0,195.167,195.167,73.9394,-160.12421,1016.0,1.54,-999.0,yes,yes,no,300234063323530,BD2GI,AOML,USCG_HEALY,North
2016-07-13T04:59:31Z,1468385971,2016,5,0,195.208,195.208,73.948,-160.1082,1015.9,3.19,-999.0,yes,yes,no,300234063323530,BD2GI,AOML,USCG_HEALY,North
2016-07-13T06:00:00Z,1468389600,2016,6,0,195.25,195.25,73.9568,-160.0914,1014.9,4.04,-999.0,yes,yes,no,300234063323530,BD2GI,AOML,USCG_HEALY,North
2016-07-13T07:00:28Z,1468393229,2016,7,0,195.292,195.292,73.9668,-160.0766,1014.5,3.83,-999.0,yes,yes,no,300234063323530,BD2GI,AOML,USCG_HEALY,North
2016-07-13T07:59:31Z,1468396771,2016,8,0,195.333,195.333,73.9768,-160.05701,1013.7,3.83,-999.0,yes,yes,no,300234063323530,BD2GI,AOML,USCG_HEALY,North
2016-07-13T09:00:00Z,1468400400,2016,9,0,195.375,195.375,73.9886,-160.03819,1012.8,3.9,-999.0,yes,yes,no,300234063323530,BD2GI,AOML,USCG_HEALY,North
2016-07-13T10:00:28Z,1468404029,2016,10,0,195.417,195.417,73.9998,-160.011,1012.4,3.73,-999.0,yes,yes,no,300234063323530,BD2GI,AOML,USCG_HEALY,North
2016-07-13T10:59:31Z,1468407571,2016,11,0,195.458,195.458,74.0112,-159.97819,1011.8,4.07,-999.0,yes,yes,no,300234063323530,BD2GI,AOML,USCG_HEALY,North
2016-07-13T12:00:00Z,1468411200,2016,12,0,195.5,195.5,74.0198,-159.93919,1011.3,4.21,-999.0,yes,yes,no,300234063323530,BD2GI,AOML,USCG_HEALY,North
2016-07-13T13:00:28Z,1468414829,2016,13,0,195.542,195.542,74.0286,-159.8956,1011.0,4.21,-999.0,yes,yes,no,300234063323530,BD2GI,AOML,USCG_HEALY,North
2016-07-13T13:59:31Z,1468418371,2016,14,0,195.583,195.583,74.0308,-159.8438,1010.4,4.07,-999.0,yes,yes,no,300234063323530,BD2GI,AOML,USCG_HEALY,North
2016-07-13T15:00:00Z,1468422000,2016,15,0,195.625,195.625,74.0302,-159.802,1010.3,4.69,-999.0,yes,yes,no,300234063323530,BD2GI,AOML,USCG_HEALY,North
2016-07-13T16:00:28Z,1468425629,2016,16,0,195.667,195.667,74.0434,-159.49319,1010.0,3.9,-999.0,yes,yes,no,300234063323530,BD2GI,AOML,USCG_HEALY,North
2016-07-13T16:59:31Z,1468429171,2016,17,0,195.708,195.708,74.1978,-159.25,1009.8,3.19,-999.0,yes,yes,no,300234063323530,BD2GI,AOML,USCG_HEALY,North
2016-07-13T18:00:00Z,1468432800,2016,18,0,195.75,195.75,74.3262,-159.5266,1009.3,2.43,-999.0,yes,yes,no,300234063323530,BD2GI,AOML,USCG_HEALY,North
2016-07-13T19:00:28Z,1468436429,2016,19,0,195.792,195.792,74.3292,-159.52341,1009.2,3.6,-999.0,yes,yes,no,300234063323530,BD2GI,AOML,USCG_HEALY,North
2016-07-13T19:59:31Z,1468439971,2016,20,0,195.833,195.833,74.3224,-159.50101,1009.3,4.11,-999.0,yes,yes,no,300234063323530,BD2GI,AOML,USCG_HEALY,North
2016-07-13T21:00:00Z,1468443600,2016,21,0,195.875,195.875,74.321,-159.4552,1009.5,5.44,-999.0,yes,yes,no,300234063323530,BD2GI,AOML,USCG_HEALY,North
2016-07-13T22:00:28Z,1468447229,2016,22,0,195.917,195.917,74.3262,-159.40221,1009.6,5.0,-999.0,yes,yes,no,300234063323530,BD2GI,AOML,USCG_HEALY,North
2016-07-13T22:59:31Z,1468450771,2016,23,0,195.958,195.958,74.3258,-159.3846,1009.5,5.13,-999.0,yes,yes,no,300234063323530,BD2GI,AOML,USCG_HEALY,North
2016-07-14T00:00:00Z,1468454400,2016,0,0,196.0,196.0,74.36,-159.5806,1009.4,2.81,-999.0,yes,yes,no,300234063323530,BD2GI,AOML,USCG_HEALY,North
2016-07-14T01:00:28Z,1468458029,2016,1,0,196.042,196.042,74.3724,-159.58,1009.5,3.9,-999.0,yes,yes,no,300234063323530,BD2GI,AOML,USCG_HEALY,North
2016-07-14T01:59:31Z,1468461571,2016,2,0,196.083,196.083,74.3774,-159.562,1009.5,2.81,-999.0,yes,yes,no,300234063323530,BD2GI,AOML,USCG_HEALY,North
2016-07-14T03:00:00Z,1468465200,2016,3,0,196.125,196.125,74.3806,-159.56261,1009.1,2.6,-999.0,yes,yes,no,300234063323530,BD2GI,AOML,USCG_HEALY,North
2016-07-14T04:00:28Z,1468468829,2016,4,0,196.167,196.167,74.3822,-159.5714,1009.2,2.23,-999.0,yes,yes,no,300234063323530,BD2GI,AOML,USCG_HEALY,North
2016-07-14T04:59:31Z,1468472371,2016,5,0,196.208,196.208,74.3762,-159.5706,1009.2,2.71,-999.0,yes,yes,no,300234063323530,BD2GI,AOML,USCG_HEALY,North
2016-07-14T06:00:00Z,1468476000,2016,6,0,196.25,196.25,74.3644,-159.60381,1009.3,1.78,-999.0,yes,yes,no,300234063323530,BD2GI,AOML,USCG_HEALY,North
2016-07-14T07:00:28Z,1468479629,2016,7,0,196.292,196.292,74.3698,-159.6226,1009.3,1.71,-999.0,yes,yes,no,300234063323530,BD2GI,AOML,USCG_HEALY,North
2016-07-14T07:59:31Z,1468483171,2016,8,0,196.333,196.333,74.3738,-159.63541,1009.4,1.51,-999.0,yes,yes,no,300234063323530,BD2GI,AOML,USCG_HEALY,North
2016-07-14T09:00:00Z,1468486800,2016,9,0,196.375,196.375,74.3738,-159.6606,1009.7,1.44,-999.0,yes,yes,no,300234063323530,BD2GI,AOML,USCG_HEALY,North
2016-07-14T10:00:28Z,1468490429,2016,10,0,196.417,196.417,74.3522,-159.7092,1009.9,1.92,-999.0,yes,yes,no,300234063323530,BD2GI,AOML,USCG_HEALY,North
2016-07-14T10:59:31Z,1468493971,2016,11,0,196.458,196.458,74.358,-159.705,1010.1,1.65,-999.0,yes,yes,no,300234063323530,BD2GI,AOML,USCG_HEALY,North
2016-07-14T12:00:00Z,1468497600,2016,12,0,196.5,196.5,74.3592,-159.6976,1010.2,1.13,-999.0,yes,yes,no,300234063323530,BD2GI,AOML,USCG_HEALY,North
2016-07-14T13:00:28Z,1468501229,2016,13,0,196.542,196.542,74.368,-159.7032,1010.7,0.79,-999.0,yes,yes,no,300234063323530,BD2GI,AOML,USCG_HEALY,North
2016-07-14T13:59:31Z,1468504771,2016,14,0,196.583,196.583,74.368,-159.72099,1010.9,0.93,-999.0,yes,yes,no,300234063323530,BD2GI,AOML,USCG_HEALY,North